Location: Unspecified
(54.1780°N, 0.0000°E)
Time: 23:03:57
(UTC+00:00)

Transit 2A - Pass Details

Date: 18 June 2019
Orbit: 594 x 964 km, 66.7° (Epoch: 19 July)

Event Time Altitude Azimuth Distance (km) Brightness Sun altitude
Rises 02:41:39 0° 232° (SW) 3,641 - -5.1°
Exits shadow 02:42:51 - 234° (SW) 3,202 8.6 -5.0°
Reaches altitude 10° 02:44:15 10° 236° (SW) 2,701 8.2 -4.9°
Maximum altitude 02:50:35 64° 318° (NW) 1,048 6.8 -4.3°
Drops below altitude 10° 02:56:43 10° 40° (NE) 2,611 10.8 -3.7°
Sets 02:59:12 0° 43° (NE) 3,512 12.6 -3.5°
